GEFSNE_con_probscp_360.txt.gz
Probability
28 28 28 28 30 30 29 26 24 23 19 16 12 6 4 5 4 2 3 3 1 0 0 0 0 0 0 0 0 0 0 0 0 0 0 1 2 3
26 26 26 26 27 26 25 24 23 23 20 17 13 8 6 6 4 3 4 4 2 0 0 0 0 0 0 0 0 0 0 0 0 0 0 0 1 2
24 25 25 25 25 24 24 23 23 23 21 17 13 9 7 7 6 6 5 4 3 1 0 0 0 0 0 0 0 0 0 0 0 0 0 0 1 2
23 24 25 25 24 24 24 23 22 21 19 16 12 9 7 7 7 7 6 5 4 2 0 0 0 0 0 0 0 0 0 0 0 0 0 0 0 1
23 23 23 23 22 22 22 21 20 19 18 15 10 8 6 6 7 6 5 6 5 3 1 0 0 0 0 0 0 0 0 0 0 0 0 0 0 0
22 22 22 21 20 20 20 18 17 16 16 12 8 5 4 5 7 6 6 7 7 4 3 2 1 1 1 0 0 0 0 0 0 0 0 0 0 0
21 21 21 20 19 17 14 13 13 13 12 10 7 5 5 7 8 7 7 8 9 7 6 5 5 4 3 1 1 0 0 0 0 0 0 0 0 0
19 18 18 17 15 11 7 6 8 8 8 8 7 8 10 11 11 8 7 9 9 9 9 8 7 8 6 3 1 0 0 0 0 0 0 0 0 0
18 17 16 14 11 9 5 4 4 5 6 7 8 10 13 15 13 11 10 10 10 10 9 8 8 9 8 4 1 0 0 0 0 0 0 0 0 0
15 15 15 13 11 9 8 6 5 5 6 7 8 10 12 13 12 12 12 11 10 9 8 7 7 8 7 5 2 0 0 0 0 0 0 0 0 0
12 12 13 12 9 8 9 9 8 8 7 7 7 8 8 7 7 9 11 11 10 9 8 7 7 7 8 7 3 0 0 0 0 0 0 0 0 0
12 12 11 8 6 6 8 10 11 11 9 9 8 7 6 5 5 7 9 10 9 9 8 8 7 7 8 8 5 1 0 0 0 0 0 0 0 0
13 12 10 5 3 3 6 9 10 11 12 13 12 10 8 8 8 8 9 9 8 7 6 6 5 5 6 6 5 2 1 1 0 0 0 0 0 0
11 11 7 3 1 1 3 5 5 7 11 14 14 11 8 8 8 8 8 7 6 5 4 4 4 4 4 4 4 2 2 2 1 1 0 0 0 0
8 6 4 1 0 0 0 1 2 3 7 11 12 9 7 7 8 7 6 5 4 4 4 4 4 3 3 3 3 1 1 2 2 1 0 0 0 0
5 5 2 1 0 0 1 2 3 4 6 8 9 9 9 9 9 7 5 4 3 3 4 4 4 3 3 3 2 1 0 1 1 1 0 0 0 0
6 6 5 2 1 2 3 5 6 6 7 7 9 11 11 11 10 6 4 3 3 3 3 3 2 2 2 1 1 0 0 1 1 1 1 1 0 0
5 7 6 4 3 4 5 6 7 7 7 7 9 11 11 9 7 4 3 3 3 3 2 3 2 1 1 0 0 0 0 2 3 2 1 1 0 0
4 5 6 5 3 3 4 5 6 6 7 7 8 9 9 7 4 2 1 1 1 1 1 2 3 3 2 2 2 2 1 3 4 2 0 0 0 0
3 4 5 4 3 3 4 4 4 4 5 6 7 7 7 5 3 1 1 0 0 0 0 2 4 4 5 5 5 4 2 3 4 2 0 0 0 0
3 3 3 3 4 5 4 3 3 2 2 4 5 5 5 4 2 2 1 0 0 0 0 1 3 4 5 5 5 5 3 2 2 1 0 0 0 0
2 1 1 2 3 5 5 4 2 1 1 3 3 4 3 2 1 1 1 0 0 0 0 1 2 2 3 4 4 4 3 2 1 0 0 0 0 0
1 0 0 1 2 4 4 4 2 1 2 3 3 3 1 0 0 0 0 0 0 0 0 0 1 2 3 3 3 4 4 2 1 0 0 0 0 0

GEFSNE_con_probscp_366.txt.gz
Probability
25 26 26 27 27 28 29 31 28 24 23 25 25 22 17 11 7 7 6 4 2 1 0 0 0 0 0 0 0 1 1 1 0 0 1 0 0 0
25 25 25 25 25 26 27 29 29 26 24 24 24 22 16 10 6 6 7 6 4 2 1 0 0 0 0 0 0 0 0 0 0 1 1 1 0 0
25 24 24 24 25 27 28 29 29 27 23 22 21 19 15 11 8 8 7 7 6 4 2 1 0 0 0 0 0 0 0 0 0 1 1 1 0 1
27 26 25 26 26 27 28 28 26 24 22 19 17 16 14 14 13 10 8 7 6 4 2 1 0 0 0 0 0 0 0 0 0 0 0 0 0 1
30 29 27 27 26 26 25 24 23 22 20 16 13 14 14 14 14 11 9 9 7 4 2 0 0 0 0 0 0 0 0 0 0 0 0 0 0 1
28 28 27 25 23 21 20 20 20 20 19 15 11 12 13 13 12 11 11 11 8 5 3 2 1 1 1 0 0 0 0 0 0 0 0 0 0 0
24 24 24 22 18 15 15 16 16 16 16 12 9 9 11 11 11 11 12 11 8 6 5 4 3 2 1 0 0 0 0 0 0 0 0 0 0 0
21 21 20 17 14 12 11 11 12 13 12 9 7 8 9 9 10 10 11 10 8 6 4 4 3 2 1 0 0 0 0 0 0 0 0 0 0 0
21 20 17 13 11 12 11 9 10 10 9 7 8 9 9 10 10 11 11 11 8 6 4 4 3 1 0 0 0 0 0 0 0 0 0 0 0 0
21 19 17 14 10 10 10 11 12 11 8 7 8 9 9 9 10 11 12 11 10 8 6 5 3 2 0 0 0 0 0 0 0 0 0 0 0 0
20 19 18 15 10 8 10 12 13 12 10 7 7 7 7 7 8 10 12 12 11 9 7 5 4 3 2 2 1 0 0 0 0 0 0 0 0 0
18 16 15 13 8 5 8 12 13 12 11 10 7 6 7 6 6 9 12 14 13 11 8 5 4 3 4 4 3 1 0 0 0 0 0 0 0 0
15 14 11 8 4 2 4 8 9 9 12 13 11 10 11 10 10 12 15 16 15 13 9 6 5 5 6 5 3 1 0 0 0 0 0 0 0 0
10 9 8 4 1 0 1 3 5 6 10 12 11 11 12 13 14 15 16 16 15 12 10 8 7 7 7 6 4 2 1 0 0 0 0 0 0 0
3 4 3 2 1 0 0 0 1 4 7 8 8 8 10 12 15 16 16 15 12 10 8 7 7 6 6 5 4 3 2 1 1 0 0 0 0 0
1 1 1 1 1 1 1 0 1 2 4 5 5 6 8 10 13 14 14 12 9 7 5 5 5 5 4 4 3 3 3 3 2 1 0 0 0 0
3 3 3 3 3 3 2 1 1 1 1 2 3 5 7 9 11 12 11 9 7 5 3 3 3 4 3 3 2 2 3 3 3 2 1 0 0 0
3 4 6 6 5 4 3 3 3 3 2 3 5 6 7 9 9 9 7 6 5 3 3 3 3 3 2 1 1 1 1 2 2 2 1 0 0 0
1 3 6 7 5 5 5 4 4 4 4 5 6 7 8 7 7 6 5 4 2 1 1 2 2 2 1 0 0 0 0 1 1 1 1 0 0 0
0 2 4 4 4 4 4 3 3 2 4 5 6 7 7 6 6 5 5 4 1 0 0 1 1 1 0 0 0 0 0 0 0 0 0 0 0 0
1 2 3 3 3 3 3 3 2 1 2 4 5 6 6 6 5 4 4 3 1 0 0 0 0 0 0 0 0 0 0 0 0 0 0 0 0 0
3 3 3 3 3 3 3 3 1 1 1 2 3 4 4 4 4 3 3 1 0 0 0 0 0 0 0 0 0 0 0 0 0 0 0 0 0 0
3 3 3 3 2 3 3 2 1 0 0 1 2 3 3 3 3 3 2 1 0 0 0 0 0 0 0 0 0 0 0 0 0 0 0 0 0 0

GEFSNE_con_probscp_372.txt.gz
Probability
15 16 16 15 14 15 15 14 11 9 7 5 2 1 0 1 2 3 3 1 0 0 0 0 0 0 0 0 0 0 0 0 0 0 0 0 1 3
15 16 15 14 13 14 13 11 10 8 8 6 2 0 0 0 1 2 3 2 1 0 0 0 0 0 0 0 0 0 0 0 0 0 0 0 1 2
12 12 11 11 12 12 11 9 8 8 9 7 3 1 0 0 0 1 2 2 1 1 1 0 0 0 0 0 0 0 0 0 0 0 0 0 1 1
7 7 6 7 9 9 9 8 8 8 8 6 4 1 0 0 0 0 1 1 1 1 0 0 0 0 0 0 0 0 0 0 0 0 0 0 0 0
7 7 6 5 6 6 7 7 7 7 6 5 4 2 1 0 0 0 0 0 0 0 0 0 0 0 0 0 0 0 0 0 0 0 0 0 0 0
11 11 9 7 7 6 5 4 5 5 5 5 4 3 2 1 0 0 0 0 0 0 0 0 0 0 0 0 0 0 0 0 0 0 0 0 0 0
12 11 10 10 10 7 4 3 3 4 5 5 5 3 3 2 1 0 0 0 0 0 0 0 0 0 0 0 0 0 0 0 0 0 0 0 0 0
9 8 7 9 10 7 4 2 1 2 4 5 5 4 3 3 2 1 0 0 0 0 0 0 0 0 0 0 0 0 0 0 0 0 0 0 0 0
7 5 5 8 9 7 4 1 0 1 1 3 4 4 4 3 3 2 1 0 0 0 0 0 0 0 0 0 0 0 0 0 0 0 0 0 0 0
7 6 6 7 8 7 4 2 1 0 0 1 2 4 4 3 3 3 2 1 1 0 0 0 0 0 0 0 0 0 0 0 0 0 0 0 0 0
7 7 6 6 6 4 3 2 2 1 0 0 0 1 1 1 1 2 3 2 1 0 0 0 0 0 0 0 0 0 0 0 0 0 0 0 0 0
7 7 7 6 4 1 1 1 2 2 1 0 0 0 0 0 0 1 3 3 2 0 0 1 1 1 1 0 0 0 0 0 0 0 0 0 0 0
6 6 6 5 2 0 0 0 1 1 1 0 0 0 0 0 1 1 3 3 2 1 1 2 2 2 2 1 0 0 0 0 0 0 0 0 0 0
6 6 5 3 1 0 0 0 0 0 0 0 0 0 0 0 1 2 3 3 3 3 3 3 3 3 3 2 1 0 0 0 0 0 0 0 0 0
5 4 3 1 0 0 0 0 0 0 0 0 0 0 0 0 1 1 2 3 3 3 3 3 3 3 3 3 2 1 0 0 0 0 0 0 0 0
2 1 1 0 0 0 0 0 0 0 0 0 0 0 0 0 0 0 1 2 2 2 3 3 3 3 3 3 3 2 1 0 0 0 0 0 0 0
0 0 0 0 0 0 0 0 0 0 0 0 0 0 0 0 0 0 0 1 1 1 1 2 3 3 3 3 3 3 2 1 0 0 0 0 0 0
0 0 0 0 0 0 0 0 0 0 0 0 0 0 0 0 0 0 1 1 0 0 0 1 2 1 1 2 3 3 2 1 0 0 0 0 0 0
0 0 0 0 0 0 0 0 0 0 0 0 0 0 0 0 0 0 1 2 1 0 0 0 0 0 0 1 1 2 1 0 0 0 0 0 0 0
0 0 0 0 0 0 0 0 0 0 0 0 0 0 0 0 0 0 1 2 1 0 0 0 0 0 0 0 0 0 0 0 0 0 0 0 0 0
0 0 0 0 0 0 0 0 0 0 0 0 0 0 0 0 0 0 0 1 1 1 0 0 0 0 0 0 0 0 0 0 0 0 0 0 0 0
0 0 0 0 0 0 0 0 0 0 0 0 0 0 0 0 0 0 0 0 1 2 1 0 0 0 0 0 0 0 0 0 0 0 0 0 0 0
0 0 0 0 0 0 0 0 0 0 0 0 0 0 0 0 0 0 0 0 1 2 1 0 0 0 0 0 0 0 0 0 0 0 0 0 0 0

GEFSNE_con_probscp_378.txt.gz
Probability
4 5 6 7 8 9 10 12 14 12 10 8 4 2 2 2 1 0 0 0 0 0 0 0 0 0 0 0 0 0 1 2 2 1 0 1 1 1
5 5 6 7 8 8 8 10 12 11 11 9 6 5 4 3 2 1 1 0 0 0 0 0 0 0 0 0 0 0 0 1 1 0 0 0 0 0
6 6 6 6 6 5 6 8 9 9 9 10 8 6 5 5 5 3 2 1 0 0 0 0 0 0 0 0 0 0 0 0 0 0 0 0 0 0
7 7 6 6 5 5 6 7 7 7 7 8 8 6 5 5 5 4 3 2 1 0 0 0 0 0 0 0 0 0 0 0 0 0 0 0 0 0
9 8 7 6 6 7 8 7 7 7 7 7 8 7 5 4 4 3 2 1 1 0 0 0 0 0 0 0 0 0 0 0 0 0 0 0 0 0
11 10 9 8 8 9 10 9 8 7 7 7 7 6 4 3 3 3 2 1 0 0 0 0 0 0 0 0 0 0 0 0 0 0 0 0 0 0
12 11 10 9 9 9 9 9 9 7 6 6 5 5 4 4 4 3 3 2 1 0 0 0 0 0 0 0 0 0 0 0 0 0 0 0 0 0
12 11 9 9 8 7 6 7 6 6 6 6 6 6 5 4 4 4 3 3 2 0 0 0 0 0 0 0 0 0 0 0 0 0 0 0 0 0
10 10 9 8 7 7 6 5 5 4 4 6 7 7 5 4 3 3 3 2 1 0 1 1 1 0 0 0 0 0 0 0 0 0 0 0 0 0
7 7 8 7 6 7 6 6 5 4 4 4 6 5 4 3 1 1 2 1 0 0 1 2 2 1 0 0 0 0 0 0 0 0 0 0 0 0
4 4 5 4 3 4 5 6 6 5 4 4 4 3 2 1 0 0 0 0 1 1 2 3 3 2 1 1 0 0 0 0 0 0 0 0 0 0
2 2 2 1 1 1 4 6 6 6 6 5 4 3 1 0 0 0 1 1 1 2 2 3 3 3 3 2 1 0 0 0 0 0 0 0 0 0
1 1 0 0 0 0 2 3 4 5 6 6 6 5 3 2 1 1 1 2 2 2 3 3 4 3 3 3 2 1 0 0 0 0 0 0 0 0
2 1 0 0 0 0 0 1 1 3 5 6 6 6 4 3 2 1 1 2 2 3 3 4 4 4 3 3 3 2 1 0 0 0 0 0 0 0
2 1 0 0 0 0 0 0 0 1 4 6 6 5 4 3 2 1 1 1 1 2 3 3 4 4 4 3 3 3 1 0 0 0 0 0 0 0
1 0 0 0 1 1 0 1 1 2 3 4 4 4 3 3 2 1 0 0 0 1 2 3 3 4 4 4 3 3 2 1 0 0 0 0 0 0
0 0 0 0 1 1 1 1 1 1 1 1 1 1 2 3 2 1 0 0 0 0 1 3 3 3 4 4 4 3 3 1 0 0 0 0 0 0
0 0 0 0 1 1 0 1 1 0 0 0 0 0 1 2 2 1 0 0 0 0 1 2 3 3 3 4 3 3 3 2 1 0 0 0 0 0
0 0 0 0 0 0 0 0 0 0 0 0 0 0 0 1 1 0 0 0 0 0 0 1 2 3 3 3 3 3 3 2 1 0 0 0 0 0
0 0 0 0 0 0 0 0 0 0 0 0 0 0 0 0 0 0 0 0 0 0 0 0 1 2 2 2 2 2 2 2 2 1 0 0 0 0
0 0 0 0 0 0 0 0 0 0 0 0 0 0 0 0 0 0 0 0 0 0 0 0 0 1 1 0 1 1 1 1 2 1 0 0 0 0
0 0 0 0 0 0 0 0 0 0 0 0 0 0 0 0 0 0 0 0 0 0 0 0 0 0 0 0 0 0 0 0 1 1 0 0 0 0
0 0 0 0 0 0 0 0 0 0 0 0 0 0 0 0 0 0 0 0 0 0 0 0 0 0 0 0 0 0 0 0 0 0 0 0 0 0